Flag for U.S.A. Weather past 2 weeks in Pueblo, Colorado, U.S.A.

Now
80 °F

Sunny.


Feels Like: 78 °F
Forecast: 43 / 66 °F
Wind: 12 mph from Southwest

Location: Pueblo Memorial Airport

Current Time: Mar 28, 2015 at 6:37:18 PM

Latest Report: Mar 28, 2015 at 5:53 PM


Visibility: 10 mi

Pressure: 29.77 "Hg

Humidity: 8%

Dew point: 15 °F

Location of PuebloLocation

Historic Weather in Pueblo — Graph

°F

Pueblo temperature yesterday

Maximum temperature yesterday: 71 °F (at 2:53 PM)
Minimum temperature yesterday: 32 °F (at 6:53 AM)
Average temperature yesterday: 51 °F

Past Weeks' High & Low Weather Summary

 TemperatureHumidityPressure
High84 °F (Mar 16, 3:53 PM)100% (Mar 20, 1:53 AM)30.46 "Hg (Mar 20, 1:53 AM)
Low26 °F (Mar 26, 5:53 AM)3% (Mar 15, 5:53 PM)29.69 "Hg (Mar 23, 5:53 PM)
Average50 °F51%30.05 "Hg
* Reported Mar 13 4:53 PM — Mar 28 4:53 PM, Pueblo, Weather by CustomWeather, © 2015

Note: Actual official high and low records may vary slightly from our data, if they occured in-between our weather recording intervals... More about our weather records

Advertising

Pueblo weather history for previous 24 hours

 ConditionsComfort  
Time TempWeatherWind HumidityBarometerVisibility
4:53 PM
Sat, Mar 28
80 °FSunny.10 mph11%29.79 "Hg10 mi
3:53 PM79 °FSunny.13 mph11%29.81 "Hg10 mi
2:53 PM78 °FSunny.12 mph12%29.84 "Hg10 mi
1:53 PM76 °FSunny.12 mph12%29.89 "Hg10 mi
12:53 PM76 °FSunny.6 mph11%29.91 "Hg10 mi
11:53 AM73 °FSunny.3 mph15%29.95 "Hg10 mi
10:53 AM73 °FSunny.12 mph17%29.97 "Hg10 mi
9:53 AM66 °FSunny.10 mph26%30.00 "Hg10 mi
8:53 AM55 °FSunny.7 mph40%30.02 "Hg10 mi
7:53 AM45 °FSunny.8 mph60%30.03 "Hg10 mi
6:53 AM36 °FClear.6 mph75%30.03 "Hg10 mi
5:53 AM41 °FClear.5 mph62%30.00 "Hg10 mi
4:53 AM42 °FClear.9 mph62%29.97 "Hg10 mi
3:53 AM42 °FClear.8 mph65%29.99 "Hg10 mi
2:53 AM41 °FClear.8 mph70%30.00 "Hg10 mi
1:53 AM43 °FClear.6 mph68%30.01 "Hg10 mi
12:53 AM45 °FClear.8 mph63%30.02 "Hg10 mi
11:53 PM
Fri, Mar 27
45 °FClear.8 mph65%30.05 "Hg10 mi
10:53 PM47 °FClear.No wind59%30.06 "Hg10 mi
9:53 PM49 °FClear.3 mph57%30.06 "Hg10 mi
8:53 PM53 °FClear.No wind45%30.04 "Hg10 mi
7:53 PM60 °FScattered clouds.6 mph35%30.03 "Hg10 mi
6:53 PM66 °FScattered clouds.8 mph26%30.01 "Hg10 mi
Weather by CustomWeather, © 2015

See weather overviewHow to use our weather pages